Belen, NM

5:55 PM MDT on March 27, 2017 (GMT -0600)
Belen

Weather History for KE80 - March, 2014

Change the Weather History Date:

Sunday, March 23, 2014

  Actual Average (KABQ) Record (KABQ)
Temperature  
Mean Temperature 48 °F -  
Max Temperature 63 °F 65 °F 78 °F (1971)
Min Temperature 34 °F 34 °F 17 °F (1914)
Degree Days  
Heating Degree Days 16    
Moisture  
Dew Point 22 °F    
Average Humidity 36    
Maximum Humidity 61    
Minimum Humidity 20    
Precipitation  
Precipitation 0.00 in - - ()
Sea Level Pressure  
Sea Level Pressure 30.17 in    
Wind  
Wind Speed 7 mph (South)    
Max Wind Speed 13 mph    
Max Gust Speed 17 mph    
Visibility 10 miles    
Events      
Averages and records for this station are not official NWS values.
T = Trace of Precipitation, MM = Missing Value Source: NWS Daily Summary

Daily Weather History Graph

Daily Weather History Graph

Search for Another Location

Airport or City:

Trip Planner

Search our weather history database for the weather conditions in past years. The results will help you decide how hot, cold, wet, or windy it might be!

Date:

Astronomy

Mar. 23, 2014 Rise Set
Actual Time 7:06 AM MDT 7:21 PM MDT
Civil Twilight 6:41 AM MDT 7:46 PM MDT
Nautical Twilight 6:12 AM MDT 8:16 PM MDT
Astronomical Twilight 5:42 AM MDT 8:46 PM MDT
Moon 1:29 AM MDT (3/23) 12:02 PM MDT (3/23)
Length of Visible Light 13h 05m
Length of Day
12h 14m
Waning Gibbous, 54% of the Moon is Illuminated
Mar 23
Waning Gibbous
Mar 23
Last Quarter
Mar 30
New
Apr 7
First Quarter
Apr 15
Full

Hourly Weather History & Observations

Time (MDT) Temp. Windchill Dew Point Humidity Pressure Visibility Wind Dir Wind Speed Gust Speed Precip Events Conditions
12:15 AM 46.4 °F 41.5 °F 17.1 °F 31% 30.12 in 10.0 mi WNW 10.4 mph - N/A   Clear
12:35 AM 45.5 °F 40.8 °F 17.1 °F 32% 30.12 in 10.0 mi NW 9.2 mph - N/A   Clear
12:55 AM 46.0 °F 41.0 °F 18.5 °F 33% 30.12 in 10.0 mi WNW 10.4 mph - N/A   Clear
1:15 AM 45.1 °F 40.3 °F 18.7 °F 35% 30.14 in 10.0 mi WNW 9.2 mph - N/A   Clear
1:35 AM 44.2 °F 38.8 °F 18.5 °F 36% 30.13 in 10.0 mi WNW 10.4 mph - N/A   Clear
1:55 AM 45.7 °F 41.0 °F 19.6 °F 35% 30.13 in 10.0 mi NW 9.2 mph - N/A   Clear
2:15 AM 45.0 °F 39.7 °F 19.6 °F 36% 30.14 in 10.0 mi NW 10.4 mph - N/A   Clear
2:35 AM 47.3 °F - 21.0 °F 35% 30.15 in 10.0 mi ENE 4.6 mph - N/A   Clear
2:55 AM 45.3 °F - 20.5 °F 37% 30.14 in 10.0 mi Calm Calm - N/A   Scattered Clouds
3:15 AM 41.9 °F 36.3 °F 20.3 °F 42% 30.15 in 10.0 mi West 9.2 mph - N/A   Mostly Cloudy
3:35 AM 40.3 °F 34.4 °F 18.7 °F 42% 30.16 in 10.0 mi WSW 9.2 mph - N/A   Scattered Clouds
3:55 AM 41.2 °F 35.0 °F 19.8 °F 42% 30.17 in 10.0 mi WSW 10.4 mph - N/A   Clear
4:15 AM 43.5 °F 38.9 °F 23.9 °F 46% 30.17 in 10.0 mi WSW 8.1 mph - N/A   Clear
4:35 AM 42.6 °F 35.9 °F 24.3 °F 48% 30.18 in 10.0 mi SSE 12.7 mph - N/A   Clear
4:55 AM 42.3 °F 35.5 °F 24.6 °F 50% 30.17 in 10.0 mi SSE 12.7 mph - N/A   Clear
5:15 AM 40.8 °F 35.6 °F 24.4 °F 52% 30.18 in 10.0 mi South 8.1 mph - N/A   Clear
5:35 AM 39.6 °F 34.7 °F 24.4 °F 55% 30.18 in 10.0 mi SSE 6.9 mph - N/A   Clear
5:55 AM 38.3 °F 32.5 °F 23.4 °F 55% 30.20 in 10.0 mi SE 8.1 mph - N/A   Clear
6:15 AM 37.0 °F 30.4 °F 24.1 °F 59% 30.21 in 10.0 mi SSE 9.2 mph - N/A   Clear
6:35 AM 37.0 °F 29.8 °F 23.7 °F 59% 30.22 in 10.0 mi SSE 10.4 mph - N/A   Clear
6:55 AM 36.9 °F 32.2 °F 23.4 °F 58% 30.23 in 10.0 mi SSE 5.8 mph - N/A   Clear
7:15 AM 35.2 °F 28.8 °F 23.0 °F 61% 30.24 in 10.0 mi South 8.1 mph - N/A   Clear
7:35 AM 34.9 °F 32.0 °F 22.6 °F 61% 30.25 in 10.0 mi SSW 3.5 mph - N/A   Clear
7:55 AM 36.1 °F 33.5 °F 22.8 °F 58% 30.26 in 10.0 mi SW 3.5 mph - N/A   Clear
8:15 AM 38.3 °F - 22.8 °F 54% 30.27 in 10.0 mi Calm Calm - N/A   Clear
8:35 AM 39.2 °F 35.0 °F 22.6 °F 52% 30.29 in 10.0 mi NW 5.8 mph - N/A   Clear
8:55 AM 40.5 °F 35.1 °F 22.8 °F 49% 30.29 in 10.0 mi WNW 8.1 mph - N/A   Scattered Clouds
9:15 AM 42.1 °F 37.7 °F 23.2 °F 47% 30.29 in 10.0 mi WNW 6.9 mph - N/A   Clear
9:35 AM 43.7 °F 40.3 °F 23.4 °F 45% 30.30 in 10.0 mi NW 5.8 mph - N/A   Clear
9:55 AM 46.0 °F 42.5 °F 23.7 °F 42% 30.29 in 10.0 mi North 6.9 mph 17.3 mph N/A   Clear
10:15 AM 47.7 °F - 24.4 °F 40% 30.29 in 10.0 mi North 6.9 mph - N/A   Clear
10:35 AM 49.1 °F - 24.4 °F 38% 30.29 in 10.0 mi North 8.1 mph - N/A   Clear
10:55 AM 50.0 °F - 24.6 °F 37% 30.29 in 10.0 mi North 9.2 mph - N/A   Clear
11:15 AM 50.0 °F - 24.6 °F 37% 30.28 in 10.0 mi North 5.8 mph - N/A   Clear
11:35 AM 51.3 °F - 24.8 °F 36% 30.28 in 10.0 mi North 6.9 mph - N/A   Clear
11:55 AM 51.6 °F - 25.2 °F 36% 30.26 in 10.0 mi NNE 4.6 mph - N/A   Clear
12:15 PM 53.6 °F - 25.3 °F 34% 30.25 in 10.0 mi NE 3.5 mph - N/A   Clear
12:35 PM 53.8 °F - 24.8 °F 33% 30.23 in 10.0 mi ESE 5.8 mph - N/A   Clear
12:55 PM 55.6 °F - 25.0 °F 31% 30.23 in 10.0 mi East 5.8 mph - N/A   Clear
1:15 PM 55.4 °F - 24.8 °F 31% 30.22 in 10.0 mi West 4.6 mph - N/A   Clear
1:35 PM 56.5 °F - 24.6 °F 29% 30.21 in 10.0 mi East 3.5 mph - N/A   Clear
1:55 PM 57.9 °F - 24.6 °F 28% 30.19 in 10.0 mi ESE 6.9 mph - N/A   Clear
2:15 PM 59.2 °F - 24.8 °F 27% 30.18 in 10.0 mi South 6.9 mph - N/A   Clear
2:35 PM 58.6 °F - 24.4 °F 27% 30.17 in 10.0 mi SSE 4.6 mph - N/A   Clear
2:55 PM 60.6 °F - 24.4 °F 25% 30.15 in 10.0 mi South 5.8 mph - N/A   Clear
3:15 PM 61.2 °F - 23.9 °F 24% 30.14 in 10.0 mi Calm Calm - N/A   Clear
3:35 PM 62.2 °F - 23.7 °F 23% 30.12 in 10.0 mi SE 4.6 mph - N/A   Clear
3:55 PM 63.7 °F - 23.7 °F 22% 30.11 in 10.0 mi SE 5.8 mph - N/A   Clear
4:15 PM 63.9 °F - 23.2 °F 21% 30.10 in 10.0 mi SE 9.2 mph - N/A   Clear
4:35 PM 63.5 °F - 22.3 °F 21% 30.09 in 10.0 mi Calm Calm - N/A   Clear
4:55 PM 63.9 °F - 22.1 °F 20% 30.09 in 10.0 mi SSW 4.6 mph - N/A   Clear
5:15 PM 63.0 °F - 22.3 °F 21% 30.09 in 10.0 mi Calm Calm - N/A   Clear
5:35 PM 63.1 °F - 22.3 °F 21% 30.09 in 10.0 mi Calm Calm - N/A   Clear
5:55 PM 62.8 °F - 22.6 °F 22% 30.09 in 10.0 mi South 5.8 mph - N/A   Clear
6:15 PM 63.3 °F - 22.6 °F 21% 30.09 in 10.0 mi South 8.1 mph - N/A   Clear
6:35 PM 62.6 °F - 22.6 °F 22% 30.09 in 10.0 mi SE 6.9 mph - N/A   Clear
6:55 PM 60.4 °F - 22.5 °F 23% 30.09 in 10.0 mi SSE 5.8 mph - N/A   Clear
7:15 PM 57.9 °F - 21.9 °F 25% 30.08 in 10.0 mi South 5.8 mph - N/A   Clear
7:35 PM 54.5 °F - 21.0 °F 27% 30.09 in 10.0 mi South 4.6 mph - N/A   Clear
7:55 PM 52.2 °F - 20.1 °F 28% 30.09 in 10.0 mi SSW 6.9 mph - N/A   Clear
8:15 PM 54.9 °F - 19.9 °F 26% 30.10 in 10.0 mi SSW 9.2 mph - N/A   Clear
8:35 PM 52.0 °F - 19.2 °F 28% 30.10 in 10.0 mi South 3.5 mph - N/A   Clear
8:55 PM 52.0 °F - 19.4 °F 28% 30.11 in 10.0 mi SSW 4.6 mph - N/A   Clear
9:15 PM 51.3 °F - 19.4 °F 29% 30.11 in 10.0 mi South 3.5 mph - N/A   Clear
9:35 PM 51.6 °F - 20.3 °F 29% 30.12 in 10.0 mi ESE 5.8 mph - N/A   Scattered Clouds
9:55 PM 49.6 °F - 20.1 °F 31% 30.12 in 10.0 mi Calm Calm - N/A   Scattered Clouds
10:15 PM 51.1 °F - 20.5 °F 30% 30.12 in 10.0 mi South 6.9 mph - N/A   Scattered Clouds
10:35 PM 52.2 °F - 21.2 °F 30% 30.13 in 10.0 mi Calm Calm - N/A   Scattered Clouds
10:55 PM 51.3 °F - 21.7 °F 31% 30.13 in 10.0 mi SSE 4.6 mph - N/A   Mostly Cloudy
11:15 PM 50.5 °F - 22.1 °F 33% 30.13 in 10.0 mi SSE 4.6 mph - N/A   Scattered Clouds
11:35 PM 49.3 °F - 22.1 °F 34% 30.13 in 10.0 mi SSE 5.8 mph - N/A   Scattered Clouds
11:55 PM 49.3 °F - 22.8 °F 35% 30.13 in 10.0 mi South 8.1 mph - N/A   Clear